Oneill, NE

6:43 AM CST on February 20, 2017 (GMT -0600)
The O'Neill Municipal-Baker

Weather History for KONL - October, 2012

Change the Weather History Date:

Sunday, October 21, 2012

  Actual Average Record
Temperature  
Mean Temperature 54 °F -  
Max Temperature 66 °F 63 °F 83 °F (1978)
Min Temperature 42 °F 36 °F 13 °F (1987)
Degree Days  
Heating Degree Days 11    
Growing Degree Days 4 (Base 50)    
Moisture  
Dew Point 39 °F    
Average Humidity 57    
Maximum Humidity 84    
Minimum Humidity 38    
Precipitation  
Precipitation 0.00 in - - ()
Sea Level Pressure  
Sea Level Pressure 29.76 in    
Wind  
Wind Speed 11 mph (North)    
Max Wind Speed 20 mph    
Max Gust Speed 26 mph    
Visibility 10 miles    
Events      
Averages and records for this station are not official NWS values.
T = Trace of Precipitation, MM = Missing Value Source: NWS Daily Summary

Daily Weather History Graph

Daily Weather History Graph

Search for Another Location

Airport or City:

Trip Planner

Search our weather history database for the weather conditions in past years. The results will help you decide how hot, cold, wet, or windy it might be!

Date:

Astronomy

Oct. 21, 2012 Rise Set
Actual Time 7:55 AM CDT 6:42 PM CDT
Civil Twilight 7:26 AM CDT 7:11 PM CDT
Nautical Twilight 6:53 AM CDT 7:43 PM CDT
Astronomical Twilight 6:21 AM CDT 8:16 PM CDT
Moon 2:19 PM CDT (10/21) No Moon Set
Length of Visible Light 11h 44m
Length of Day
10h 47m
Waxing Crescent, 45% of the Moon is Illuminated
Oct 21
Waxing Crescent
Oct 21
First Quarter
Oct 29
Full
Nov 6
Last Quarter
Nov 13
New

Hourly Weather History & Observations

Time (CDT) Temp. Windchill Dew Point Humidity Pressure Visibility Wind Dir Wind Speed Gust Speed Precip Events Conditions
12:15 AM 52.3 °F - 35.6 °F 53% 29.64 in 10.0 mi SSE 9.2 mph - N/A   Clear
12:35 AM 51.3 °F - 35.6 °F 55% 29.64 in 10.0 mi SSE 10.4 mph - N/A   Clear
12:55 AM 50.9 °F - 35.8 °F 56% 29.63 in 10.0 mi SSE 10.4 mph - N/A   Clear
1:15 AM 50.5 °F - 36.0 °F 57% 29.63 in 10.0 mi SSE 11.5 mph - N/A   Clear
1:35 AM 50.2 °F - 36.1 °F 59% 29.63 in 10.0 mi SSE 10.4 mph - N/A   Clear
1:55 AM 49.5 °F - 36.3 °F 61% 29.63 in 10.0 mi SSE 11.5 mph - N/A   Clear
2:15 AM 49.1 °F - 36.5 °F 62% 29.62 in 10.0 mi SSE 9.2 mph - N/A   Clear
2:35 AM 47.5 °F - 36.1 °F 65% 29.62 in 10.0 mi SSE 8.1 mph - N/A   Clear
2:55 AM 46.6 °F - 36.1 °F 67% 29.62 in 10.0 mi SSE 9.2 mph - N/A   Clear
3:15 AM 47.7 °F - 36.7 °F 66% 29.62 in 10.0 mi South 9.2 mph - N/A   Clear
3:35 AM 48.7 °F - 37.0 °F 64% 29.62 in 10.0 mi South 10.4 mph - N/A   Clear
3:55 AM 48.6 °F - 37.0 °F 64% 29.62 in 10.0 mi South 10.4 mph - N/A   Clear
4:15 AM 48.2 °F - 36.9 °F 65% 29.62 in 10.0 mi South 10.4 mph - N/A   Clear
4:35 AM 47.5 °F - 36.9 °F 67% 29.62 in 10.0 mi South 9.2 mph - N/A   Clear
4:55 AM 46.4 °F 42.4 °F 36.5 °F 68% 29.62 in 10.0 mi South 8.1 mph - N/A   Clear
5:15 AM 45.0 °F 40.1 °F 36.1 °F 71% 29.63 in 10.0 mi SSE 9.2 mph - N/A   Clear
5:35 AM 45.0 °F 41.8 °F 36.5 °F 72% 29.63 in 10.0 mi South 5.8 mph - N/A   Clear
5:55 AM 46.4 °F 41.5 °F 36.1 °F 67% 29.64 in 10.0 mi South 10.4 mph 24.2 mph N/A   Clear
6:15 AM 45.3 °F 43.0 °F 35.4 °F 68% 29.65 in 10.0 mi South 4.6 mph - N/A   Clear
6:35 AM 45.3 °F 43.0 °F 34.9 °F 67% 29.66 in 10.0 mi SSW 4.6 mph - N/A   Clear
6:55 AM 43.3 °F 39.9 °F 34.3 °F 71% 29.66 in 10.0 mi SSW 5.8 mph - N/A   Clear
7:15 AM 43.9 °F 39.9 °F 33.4 °F 67% 29.66 in 10.0 mi SW 6.9 mph - N/A   Clear
7:35 AM 44.6 °F 42.2 °F 32.7 °F 63% 29.68 in 10.0 mi SW 4.6 mph - N/A   Clear
7:55 AM 43.5 °F 40.1 °F 32.4 °F 65% 29.68 in 10.0 mi SW 5.8 mph - N/A   Clear
8:15 AM 42.4 °F 38.8 °F 32.0 °F 67% 29.69 in 10.0 mi SW 5.8 mph - N/A   Clear
8:35 AM 42.3 °F 39.4 °F 32.4 °F 68% 29.70 in 10.0 mi West 4.6 mph - N/A   Clear
8:55 AM 51.4 °F - 33.3 °F 50% 29.71 in 10.0 mi NW 15.0 mph - N/A   Clear
9:15 AM 54.0 °F - 33.4 °F 46% 29.72 in 10.0 mi WNW 15.0 mph 21.9 mph N/A   Clear
9:35 AM 54.5 °F - 33.8 °F 46% 29.74 in 10.0 mi NW 19.6 mph 24.2 mph N/A   Clear
9:55 AM 54.9 °F - 34.7 °F 47% 29.74 in 10.0 mi NW 15.0 mph - N/A   Clear
10:15 AM 55.6 °F - 36.0 °F 48% 29.75 in 10.0 mi NW 19.6 mph 26.5 mph N/A   Clear
10:35 AM 57.0 °F - 36.9 °F 47% 29.77 in 10.0 mi NW 18.4 mph - N/A   Clear
10:55 AM 57.9 °F - 37.6 °F 47% 29.78 in 10.0 mi NNW 18.4 mph - N/A   Clear
11:15 AM 58.3 °F - 38.8 °F 48% 29.79 in 10.0 mi NW 17.3 mph 24.2 mph N/A   Clear
11:35 AM 59.4 °F - 39.7 °F 48% 29.78 in 10.0 mi NNW 16.1 mph 20.7 mph N/A   Clear
11:55 AM 60.6 °F - 39.9 °F 46% 29.79 in 10.0 mi NNW 12.7 mph - N/A   Clear
12:15 PM 61.5 °F - 40.1 °F 45% 29.80 in 10.0 mi NNW 11.5 mph 16.1 mph N/A   Clear
12:35 PM 62.2 °F - 40.3 °F 44% 29.80 in 10.0 mi NNW 11.5 mph 19.6 mph N/A   Clear
12:55 PM 63.9 °F - 40.1 °F 42% 29.80 in 10.0 mi NNW 13.8 mph - N/A   Clear
1:15 PM 64.2 °F - 39.9 °F 41% 29.79 in 10.0 mi North 13.8 mph - N/A   Clear
1:35 PM 65.5 °F - 39.9 °F 39% 29.78 in 10.0 mi North 11.5 mph 18.4 mph N/A   Clear
1:55 PM 65.8 °F - 39.7 °F 38% 29.78 in 10.0 mi North 12.7 mph 19.6 mph N/A   Clear
2:15 PM 66.0 °F - 39.7 °F 38% 29.78 in 10.0 mi North 13.8 mph 20.7 mph N/A   Clear
2:35 PM 65.7 °F - 39.6 °F 38% 29.78 in 10.0 mi North 11.5 mph 19.6 mph N/A   Clear
2:55 PM 65.5 °F - 39.7 °F 39% 29.78 in 10.0 mi North 16.1 mph - N/A   Clear
3:15 PM 65.5 °F - 39.9 °F 39% 29.79 in 10.0 mi North 12.7 mph - N/A   Clear
3:35 PM 65.5 °F - 39.6 °F 39% 29.79 in 10.0 mi North 17.3 mph - N/A   Clear
3:55 PM 65.7 °F - 39.7 °F 39% 29.79 in 10.0 mi North 16.1 mph 19.6 mph N/A   Clear
4:15 PM 66.0 °F - 39.9 °F 38% 29.79 in 10.0 mi NNE 12.7 mph 18.4 mph N/A   Clear
4:35 PM 65.8 °F - 40.1 °F 39% 29.79 in 10.0 mi North 17.3 mph - N/A   Clear
4:55 PM 65.8 °F - 40.1 °F 39% 29.79 in 10.0 mi North 16.1 mph - N/A   Clear
5:15 PM 65.5 °F - 40.1 °F 39% 29.80 in 10.0 mi North 16.1 mph 20.7 mph N/A   Clear
5:35 PM 65.1 °F - 40.3 °F 40% 29.81 in 10.0 mi NNE 12.7 mph 20.7 mph N/A   Clear
5:55 PM 64.4 °F - 41.0 °F 42% 29.82 in 10.0 mi NE 15.0 mph - N/A   Clear
6:15 PM 62.1 °F - 40.8 °F 46% 29.83 in 10.0 mi NNE 12.7 mph - N/A   Clear
6:35 PM 60.3 °F - 41.0 °F 49% 29.84 in 10.0 mi NNE 11.5 mph - N/A   Clear
6:55 PM 57.6 °F - 41.4 °F 55% 29.85 in 10.0 mi NNE 9.2 mph - N/A   Clear
7:15 PM 55.9 °F - 41.5 °F 58% 29.86 in 10.0 mi NNE 9.2 mph - N/A   Clear
7:35 PM 55.8 °F - 42.3 °F 60% 29.87 in 10.0 mi NNE 11.5 mph - N/A   Clear
7:55 PM 53.6 °F - 42.1 °F 65% 29.88 in 10.0 mi North 9.2 mph - N/A   Clear
8:15 PM 53.6 °F - 42.8 °F 67% 29.88 in 10.0 mi North 11.5 mph - N/A   Clear
8:35 PM 53.6 °F - 43.3 °F 68% 29.89 in 10.0 mi North 12.7 mph - N/A   Clear
8:55 PM 53.4 °F - 43.3 °F 69% 29.89 in 10.0 mi North 10.4 mph 23.0 mph N/A   Mostly Cloudy
9:15 PM 52.3 °F - 43.3 °F 71% 29.90 in 10.0 mi NNE 12.7 mph 18.4 mph N/A   Mostly Cloudy
9:35 PM 52.0 °F - 43.3 °F 72% 29.90 in 10.0 mi NNE 15.0 mph - N/A   Mostly Cloudy
9:55 PM 51.1 °F - 43.5 °F 75% 29.90 in 10.0 mi NNE 13.8 mph 19.6 mph N/A   Scattered Clouds
10:15 PM 50.4 °F - 43.5 °F 77% 29.90 in 10.0 mi NNE 13.8 mph - N/A   Scattered Clouds
10:35 PM 50.2 °F - 43.2 °F 77% 29.90 in 10.0 mi NNE 13.8 mph 19.6 mph N/A   Mostly Cloudy
10:55 PM 50.0 °F - 43.0 °F 77% 29.90 in 10.0 mi NNE 13.8 mph 18.4 mph N/A   Mostly Cloudy
11:15 PM 49.1 °F - 42.8 °F 79% 29.90 in 10.0 mi NNE 11.5 mph - N/A   Scattered Clouds
11:35 PM 48.2 °F - 42.8 °F 82% 29.90 in 10.0 mi NNE 15.0 mph - N/A   Scattered Clouds
11:55 PM 47.7 °F - 43.0 °F 84% 29.90 in 10.0 mi NNE 13.8 mph - N/A   Scattered Clouds